Location: Asheville, NC
(35.6000°N, 82.5500°W)
Time: 01:28:38
(UTC-05:00)

UWE-3 - Pass Details

Date: 05 January 2018
Orbit: 587 x 683 km, 97.6° (Epoch: 20 January)

Event Time Altitude Azimuth Distance (km) Brightness Sun altitude
Rises 19:59:34 0° 187° (S) 2,808 ? -29.4°
Reaches altitude 10° 20:01:50 10° 196° (SSW) 1,920 ? -29.9°
Enters shadow 20:05:38 35° 262° (W) 984 ? -30.6°
Exits shadow 20:08:04 19° 317° (NW) 1,447 ? -31.1°
Drops below altitude 10° 20:09:34 10° 329° (NNW) 1,975 ? -31.4°
Sets 20:11:57 0° 338° (NNW) 2,901 ? -31.9°
